Location: Devore
(34.2164°N, 117.4014°W)
Time: 05:45:48
(UTC+00:00)

Daily predictions for brighter satellites

Satellite Brightness Start Highest point End
(mag) Time Altitude Azimuth Time Altitude Azimuth Time Altitude Azimuth
Cosmos 2297 3.8 03:21:06 10° S 03:26:35 55° ESE 03:32:10 10° NNE
ISS -3.7 03:24:01 10° NW 03:27:23 78° NE 03:30:44 10° SE
STARLINK-1125 3.9 03:23:19 10° NW 03:27:24 57° NE 03:31:28 10° ESE
Cosmos 1140 Rocket 4.1 03:23:13 10° NNW 03:28:22 59° WSW 03:33:29 10° S
USA 186 1.3 03:25:54 10° SSE 03:28:31 69° ENE 03:31:20 10° N
Cosmos 1975 2.8 03:25:14 10° N 03:29:16 89° E 03:33:14 10° S
COSMOS 2406 3.7 03:23:51 10° NNW 03:29:32 64° WSW 03:35:10 10° S
Meteor 2-4 Rocket 3.6 03:24:38 10° S 03:29:58 79° E 03:35:21 10° N
NOSS 2-2 (E) 3.1 03:28:40 10° SSW 03:32:14 83° WNW 03:35:55 10° NNE
STARLINK-1109 3.8 03:28:15 10° NW 03:32:22 64° NE 03:36:28 10° SE
Cosmos 332 Rocket 3.9 03:28:43 10° SSW 03:33:37 87° WNW 03:38:31 10° NNE
Cosmos 2082 Rocket 2.6 03:28:46 10° N 03:34:19 50° ENE 03:39:48 10° SE
Cosmos 2369 Rocket 3.6 03:30:53 10° SE 03:34:30 18° E 03:38:07 10° ENE
Cosmos 1452 Rocket 4.0 03:30:57 10° SSW 03:36:10 66° WNW 03:41:26 10° N
STARLINK-1091 3.7 03:33:13 10° NW 03:37:20 71° NE 03:41:21 11° SE
SJ-6B 2.6 03:37:10 10° SSE 03:40:51 71° ENE 03:44:34 10° N
STARLINK-1072 3.6 03:38:13 10° NW 03:42:23 80° NE 03:46:11 12° SE
MONITOR-E 3.5 03:39:58 10° SSE 03:42:30 74° ENE 03:45:02 10° N
MOS 1 4.3 03:40:50 10° SSE 03:46:32 89° ENE 03:52:15 10° NNW
STARLINK-1096 3.6 03:43:09 10° NW 03:47:18 89° NNE 03:50:56 13° SE
Aureole 2 Rocket 2.5 03:44:58 10° SSW 03:48:03 64° WNW 03:51:01 10° N
Lacrosse 5 2.0 03:43:19 10° NW 03:48:22 74° SW 03:53:11 11° SSE
IUS-15 SRM-1 4.3 03:46:44 10° WSW 03:49:44 19° SSW 03:51:05 13° SSE
SL-08 RB Rocket 3.8 03:47:03 10° S 03:51:36 84° WSW 03:56:10 10° NNW
STARLINK-1079 3.6 03:48:10 10° NW 03:52:19 82° SW 03:55:45 15° SE
USA 267 3.8 03:46:20 10° SSE 03:52:41 53° SW 03:59:04 10° NW
Sakura Rocket 4.2 03:49:46 10° WSW 03:54:54 48° S 04:01:04 13° ESE
STARLINK-52 2.8 03:53:53 10° SW 03:57:04 75° SE 04:00:16 10° NE
STARLINK-1116 3.7 03:53:09 10° NW 03:57:16 73° SW 04:00:31 16° SE
NOSS 2-2 (C) 4.0 03:54:29 10° SW 03:57:59 50° WNW 04:01:34 10° NNE
Cosmos 1066 Rocket 4.4 03:56:33 10° SSE 04:01:40 46° E 04:06:45 10° NNE
ATLAS 2AS CENTAUR R/B 3.6 03:56:09 10° S 04:02:57 34° ESE 04:09:53 10° NE
MetOp-A 4.1 03:57:55 10° SSE 04:03:16 82° ENE 04:08:39 10° N
Cosmos 1634 Rocket 4.3 03:59:05 10° N 04:05:24 71° W 04:11:39 10° S
STARLINK-1094 4.0 04:03:08 10° NW 04:07:12 58° SW 04:10:04 18° SSE
CZ-2C R/B 4.2 04:04:53 10° N 04:09:23 65° WNW 04:13:58 10° SSW
STARLINK-1117 4.1 04:08:09 10° NW 04:12:11 51° SW 04:14:52 19° SSE
GPS 2-04 Rocket1 2.4 04:09:13 10° W 04:12:35 61° SSW 04:14:20 26° SE
Ariane Rocket 4.4 04:08:24 10° SSW 04:13:01 35° W 04:17:41 10° NNW
COSMOS 2455 4.3 04:13:27 16° ESE 04:13:38 16° ESE 04:17:03 10° ENE
FALCON 9 DEB 3.0 04:10:28 10° SW 04:13:50 63° SE 04:17:13 10° NE
SL-4 R/B 3.5 04:11:25 10° WSW 04:15:49 46° NW 04:20:27 10° NE
Okean 1 Rocket 3.9 04:12:52 10° NNE 04:16:55 34° E 04:18:48 24° SE
STARLINK-1078 4.3 04:13:10 10° WNW 04:17:07 45° SW 04:19:39 20° SSE
Cosmos 1110 Rocket 4.2 04:12:32 10° SSW 04:17:42 73° WNW 04:22:52 10° NNE
Cosmos 1741 Rocket 4.0 04:13:23 10° NNW 04:18:38 88° ENE 04:22:35 18° SSE
Cosmos 1850 Rocket 4.2 04:20:04 10° NNW 04:25:25 76° WSW 04:29:27 18° S
Cosmos 1437 Rocket 4.0 04:22:51 10° SSW 04:26:25 41° W 04:30:04 10° N
ATLAS CENTAUR R/B 2.3 04:28:14 29° SE 04:28:51 30° ESE 04:32:38 10° NE
Okean 2 Rocket 4.1 04:24:51 10° NNW 04:29:00 43° W 04:33:08 10° SSW
STARLINK-1106 4.5 04:25:29 10° NNW 04:29:24 40° NE 04:31:18 25° E
Cosmos 1331 Rocket 4.5 04:25:07 10° SSW 04:30:10 61° WNW 04:35:19 10° N
Okean 2 4.2 04:30:15 29° ESE 04:30:56 31° E 04:34:37 10° NNE
Abrixas rocket 2.2 04:28:08 10° NW 04:31:02 58° NE 04:31:38 45° E
ASTRO E2 3.3 04:29:06 10° W 04:32:47 38° SSW 04:33:40 33° SSE
STARLINK-1112 4.3 04:30:25 10° NNW 04:34:24 45° NE 04:36:05 28° E
Terra 3.9 04:33:54 11° ENE 04:34:58 12° ENE 04:36:39 10° NE
Resurs 01 Rocket 1.6 04:32:17 23° S 04:35:01 85° WSW 04:39:30 10° NNW
USA 245 4.2 04:36:22 20° NE 04:36:22 20° NE 04:37:47 10° NNE
STARLINK-1390 4.4 04:39:07 30° E 04:39:07 30° E 04:41:37 10° ENE
deb Kosmos-1763 4.1 04:35:43 10° NNW 04:39:18 74° WSW 04:40:33 38° S
STARLINK-1128 4.1 04:35:21 10° NW 04:39:23 49° NE 04:40:51 33° E
CZ-2C R/B 4.2 04:35:01 10° N 04:40:08 37° WNW 04:45:12 10° SW
SPOT 3 Rocket 4.4 04:37:17 12° S 04:41:49 47° W 04:46:48 10° NNW
APEX 4.4 04:35:16 10° S 04:41:57 64° ESE 04:47:33 10° NNE
BREEZE-M DEB (TANK) 2.6 04:39:43 10° SW 04:42:03 76° NW 04:47:19 10° NE
STARLINK-1365 3.7 04:38:22 10° SSW 04:42:11 44° SE 04:46:01 10° ENE
Cosmos 1302 Rocket 3.9 04:38:34 10° SSW 04:43:51 87° ESE 04:49:10 10° NNE
STARLINK-1113 4.0 04:40:19 10° NW 04:44:23 55° NE 04:45:39 38° E
Cosmos 1943 Rocket 2.4 04:39:35 10° SSW 04:45:05 70° WNW 04:50:40 10° NNE
SPOT 1/Viking Rocket 4.2 04:44:13 30° ESE 04:45:55 39° ENE 04:50:41 10° N
Cosmos 2026 Rocket 4.4 04:46:47 30° SE 04:49:11 43° E 04:55:08 10° NNE
STARLINK-1119 3.8 04:45:15 10° NW 04:49:22 61° NE 04:50:25 44° E
Cosmos 1766 3.7 04:48:25 10° N 04:52:15 43° E 04:52:31 43° E
STARLINK-1114 3.7 04:50:14 10° NW 04:54:22 69° NE 04:55:13 51° ESE
STARLINK-1338 3.7 04:57:52 50° E 04:57:52 50° E 05:01:00 10° NE
STARLINK-1130 (DARKSAT) 3.5 04:55:11 10° NW 04:59:19 77° NE 04:59:59 60° ESE
CENTAUR R/B 4.0 04:54:17 10° NNW 05:01:58 41° NE 05:06:37 24° ESE
Cosmos 1992 Rocket 4.2 05:01:24 43° ESE 05:01:59 45° ESE 05:06:55 10° NNE
Milstar 3 Cent rocket 3.8 04:55:43 10° SW 05:03:07 54° SSE 05:18:48 10° E
STARLINK-1084 3.4 05:00:09 10° NW 05:04:18 86° NE 05:04:47 69° SE
Nadezhda 4 Rocket 4.4 04:59:12 10° SSW 05:05:13 58° W 05:11:14 10° N
STARLINK-1371 3.4 05:05:40 68° ENE 05:05:40 68° ENE 05:09:12 10° NE
Cosmos 1656 Rocket 3.7 05:04:04 40° SSE 05:05:47 57° ESE 05:11:15 10° NNE
STARLINK-1098 3.4 05:05:07 10° NW 05:09:16 85° SW 05:09:33 77° SSE
Meteor 1-21 4.4 05:08:12 45° SE 05:09:21 53° E 05:14:47 10° NNE
STARLINK-1341 3.3 05:09:38 78° ENE 05:09:38 78° ENE 05:13:20 10° NE
Cosmos 292 Rocket 3.8 05:09:17 31° SSW 05:11:38 80° WNW 05:16:31 10° NNE
STARLINK-1374 3.4 05:13:39 83° NNE 05:13:39 83° NNE 05:17:26 10° NE
STARLINK-1123 3.5 05:10:06 10° NW 05:14:14 76° SW 05:14:20 76° SSW
SL-8 R/B 3.6 05:09:27 10° NW 05:14:17 83° NE 05:15:03 63° ESE
STARLINK-1339 3.4 05:17:36 79° WNW 05:17:40 80° NW 05:21:37 10° NE
Cosmos 2082 Rocket 4.4 05:14:08 10° WNW 05:17:53 18° W 05:21:38 10° SW
Cosmos 2369 Rocket 2.9 05:12:31 10° SW 05:18:01 52° WNW 05:23:32 10° N
STARLINK-1097 3.7 05:15:06 10° NW 05:19:07 68° WSW 05:19:07 68° WSW
ERS-1 Rocket 3.0 05:19:12 55° ESE 05:19:53 61° ENE 05:24:51 10° N
Cosmos 1975 Rocket 3.2 05:19:47 52° SW 05:20:45 70° W 05:25:08 10° N
Cosmos 1025 Rocket 4.4 05:22:04 27° ENE 05:22:04 27° ENE 05:24:38 10° NNE
STARLINK-1377 3.6 05:21:34 69° W 05:21:51 72° NW 05:25:46 10° NE
OAO 1 4.5 05:16:52 10° W 05:22:24 86° N 05:24:01 48° E
NOSS 3-2 (C) 4.4 05:15:22 10° NNW 05:23:05 58° NE 05:26:32 36° ESE
STARLINK-1099 3.9 05:20:05 10° NW 05:23:53 58° WSW 05:23:53 58° WSW
Cosmos 1805 3.8 05:21:31 10° NNW 05:25:20 52° W 05:25:30 51° WSW
NOSS 3-4 (A) 3.5 05:19:58 10° SW 05:25:50 71° WNW 05:31:57 10° NNE
NOSS 3-4 (C) 3.5 05:20:03 10° SW 05:25:55 72° WNW 05:32:04 10° NNE
STARLINK-1353 3.8 05:25:29 57° W 05:26:02 65° NW 05:29:56 10° NE
Landsat 7 4.1 05:25:57 50° SSW 05:26:54 62° W 05:31:37 10° NNW
STARLINK-1104 4.2 05:25:06 10° NW 05:28:41 50° WSW 05:28:41 50° WSW
STARLINK-1375 3.9 05:29:31 49° W 05:30:13 59° NW 05:34:07 10° NE
Cosmos 1470 4.3 05:27:18 10° NNE 05:29:36 27° NE 05:29:36 27° NE
STARLINK-1144 4.4 05:30:07 10° WNW 05:33:28 43° W 05:33:28 43° W
STARLINK-1350 4.1 05:33:28 42° W 05:34:25 54° NW 05:38:16 10° NE
Cosmos 1842 4.0 05:36:05 46° W 05:36:08 46° W 05:39:53 10° N
Cosmos 1867 4.4 05:32:36 10° NNW 05:37:37 36° NE 05:38:17 35° ENE
Cosmos 968 Rocket 3.7 05:32:48 10° N 05:37:49 54° ENE 05:37:51 54° ENE
Cosmos 1733 4.0 05:34:53 10° NNW 05:38:02 49° WNW 05:38:02 49° WNW
STARLINK-1352 4.3 05:37:31 36° W 05:38:41 49° NW 05:42:31 10° NE
BREEZE-M DEB (TANK) 3.3 05:36:01 10° SW 05:49:18 87° NW 05:53:16 10° NE
Cosmos 1271 Rocket 3.8 05:51:50 43° NNW 05:51:50 43° NNW 05:54:39 10° N
Cosmos 1953 4.4 05:48:47 10° NNE 05:50:26 19° NE 05:50:26 19° NE
ATLAS 2AS CENTAUR R/B 3.8 05:46:02 10° SW 05:53:40 51° NW 06:01:25 10° NNE
ATLAS 3B CENTAUR R/B 3.2 05:40:31 10° W 05:55:14 56° SSW 05:56:32 52° SSE
Cosmos 1455 Rocket 3.6 05:51:39 10° NNW 05:55:19 54° WNW 05:55:19 54° WNW
COSMOS 2455 3.1 05:56:28 36° SW 05:58:54 65° WNW 06:04:55 10° NNE
CARTOSAT-1 4.4 06:00:05 44° WNW 06:00:05 44° WNW 06:03:43 10° NNW
NOSS 3-2 (A) 4.4 05:53:37 10° NW 06:01:23 59° WSW 06:03:41 46° SSW
Cosmos 1707 4.3 06:03:58 34° N 06:03:58 34° N 06:06:18 10° N
SPOT 5 3.4 06:04:50 54° WSW 06:05:01 55° W 06:10:16 10° NNW
Thor Agena Rocket 4.4 06:00:01 10° NNE 06:03:47 40° ENE 06:03:47 40° ENE
ATLAS CENTAUR R/B 3.7 06:04:12 10° WSW 06:07:44 23° NW 06:11:09 10° N
Cosmos 1417 Rocket 4.4 06:01:30 10° N 06:07:53 80° E 06:08:15 76° SE
Terra 2.3 06:12:47 55° WNW 06:12:47 55° WNW 06:16:50 10° NNW
USA 238 DEB 4.4 06:08:52 10° NW 06:15:45 45° WSW 06:16:56 42° SW
USA 238 4.4 06:08:57 10° NW 06:15:52 45° WSW 06:17:02 42° SW
Meteor 2-10 4.4 06:12:31 10° N 06:16:35 55° NNE 06:16:35 55° NNE
Cosmos 1503 Rocket 4.2 06:13:48 10° NNW 06:18:32 70° NNW 06:18:32 70° NNW
SeaSat 1 3.8 06:27:14 10° NNE 06:29:54 31° NE 06:29:54 31° NE
Cosmos 2297 Rocket 4.4 06:31:19 10° NNE 06:34:07 14° NE 06:35:10 13° ENE
S3M 4.0 06:33:49 10° N 06:39:53 71° W 06:39:53 71° W
Cosmos 2315 Rocket 4.3 06:37:23 10° N 06:42:54 55° ENE 06:42:54 55° ENE
BREEZE-M DEB (TANK) 4.3 06:40:05 10° NW 06:47:33 46° N 06:47:33 46° N
CENTAUR R/B 3.6 06:44:53 10° NW 06:52:57 50° WSW 06:53:47 49° SW
ATLAS 3B R/B 2.6 06:53:35 10° NNW 07:00:14 83° WNW 07:00:14 83° WNW
Cosmos 2098 Rocket 4.4 07:08:10 68° W 07:08:31 68° W 07:15:59 10° N
Cosmos 2227 Rocket 3.8 07:07:36 10° N 07:12:09 24° ENE 07:12:15 24° ENE
Meteor 2-5 Rocket 4.4 07:24:06 50° NNW 07:24:06 50° NNW 07:28:30 10° N
Lacrosse 4 Rocket 4.3 07:27:06 10° NNE 07:28:19 12° NE 07:28:19 12° NE
CZ-4C R/B 3.1 07:45:19 40° NNE 07:45:19 40° NNE 07:49:01 10° NNE
SJ 16-02 3.4 07:47:42 10° N 07:49:50 25° NNE 07:49:50 25° NNE
Cosmos 1980 Rocket 3.7 07:54:20 28° ENE 07:54:20 28° ENE 07:57:27 10° NE
Cosmos 2369 4.4 08:02:54 49° NNE 08:02:54 49° NNE 08:06:57 10° NNE
Cosmos 2297 Rocket 3.0 08:13:06 10° NNW 08:16:57 45° NW 08:16:57 45° NW
Cosmos 2219 4.3 08:16:04 10° NNW 08:19:29 36° NW 08:19:29 36° NW
Cosmos 1709 Rocket 4.2 08:23:15 64° NE 08:23:15 64° NE 08:28:32 10° N
USA 215 4.0 08:22:46 24° E 08:26:32 48° NE 08:32:45 10° NNW
Cosmos 1937 Rocket 4.4 08:21:47 10° N 08:25:47 46° NNE 08:25:47 46° NNE
SL-16 R/B 4.5 08:24:35 16° E 08:27:19 21° ENE 08:31:47 10° NNE
Cosmos 2322 Rocket 4.3 08:31:35 16° E 08:31:35 16° E 08:34:11 10° ENE
BREEZE-M (TANK) 4.3 08:30:44 73° SSE 08:31:01 74° SE 08:53:18 10° NE
Cosmos 2082 4.2 08:27:03 10° NNW 08:31:40 55° NNE 08:31:40 55° NNE
Cosmos 1898 Rocket 4.5 08:29:25 10° NNW 08:32:57 43° NNW 08:32:57 43° NNW
Cosmos 2278 4.2 08:39:07 56° N 08:39:07 56° N 08:43:42 10° NNE
Cosmos 1697 Rocket 3.6 08:39:13 41° NW 08:39:13 41° NW 08:43:53 10° N
Cosmos 2285 Rocket 4.0 08:42:15 10° NNW 08:48:31 72° ENE 08:48:31 72° ENE
Resurs 1-4 Rocket 3.1 08:49:46 10° NNE 08:54:06 38° E 08:54:06 38° E
Cosmos 2227 Rocket 3.6 08:51:03 10° NW 08:54:02 28° WNW 08:54:02 28° WNW
Cosmos 841 Rocket 4.5 08:58:06 41° NW 08:58:06 41° NW 09:02:02 10° N
IRAS Rocket 4.4 08:57:50 67° NE 08:57:50 67° NE 09:02:54 10° N
SL-16 R/B 3.0 09:05:59 42° E 09:05:59 42° E 09:10:53 10° NE
Lacrosse 4 Rocket 3.9 09:03:42 10° NW 09:04:36 16° NW 09:04:36 16° NW
Cosmos 2074 Rocket 4.1 09:09:08 66° ESE 09:09:25 67° E 09:15:39 10° NNE
Cosmos 2298 Rocket 4.5 09:10:18 10° N 09:15:31 55° ENE 09:15:39 55° ENE
FALCON 9 R/B 3.3 09:20:20 47° W 09:22:41 75° SSW 09:43:54 10° ESE
CZ-2D R/B 2.2 09:18:19 10° NNE 09:23:08 71° ENE 09:23:08 71° ENE
Cosmos 2360 Rocket 3.6 09:28:00 26° ESE 09:28:48 27° ESE 09:33:25 10° NE
Cosmos 2184 Rocket 3.8 09:33:27 76° SW 09:33:48 79° W 09:40:00 10° N
Cosmos 1980 Rocket 3.5 09:36:04 26° WNW 09:36:21 27° WNW 09:41:04 10° N
MOZ.5/SAFIR/RUBIN 5/SL-8 4.3 09:41:20 50° NW 09:41:20 50° NW 09:44:51 10° NNW
CBERS-1 4.4 09:37:29 10° NNE 09:42:30 53° E 09:42:56 52° ESE
Cosmos 1610 Rocket 4.4 09:41:43 64° SSE 09:42:41 80° E 09:48:51 10° N
BREEZE M DEB (TANK) 3.7 09:46:52 39° N 09:47:47 52° NE 09:55:05 10° ESE
Timation 1 Rocket 4.2 09:42:14 10° NNW 09:48:12 81° WSW 09:48:53 70° S
Cosmos 2263 Rocket 2.1 09:54:09 10° NNW 09:59:45 82° ENE 10:01:31 45° SSE
IRIDIUM 106 4.5 09:59:21 53° SE 10:00:25 68° E 10:05:36 10° N
STARLINK-1007 4.5 10:01:08 43° E 10:01:08 43° E 10:04:26 10° NE
STARLINK-54 4.4 10:01:56 42° NE 10:01:56 42° NE 10:04:26 10° NE
STARLINK-77 4.4 10:03:22 42° ENE 10:03:22 42° ENE 10:05:54 10° NE
CZ-4B R/B 3.6 09:59:28 10° N 10:04:39 60° WNW 10:05:08 58° W
ADEOS II 2.2 09:59:48 10° NNE 10:05:03 69° ESE 10:06:13 52° SSE
STARLINK-1048 4.2 10:05:54 50° E 10:05:54 50° E 10:09:26 10° NE
Cosmos 1408 3.5 10:06:11 44° E 10:06:11 44° E 10:09:33 10° NNE
STARLINK-79 4.1 10:08:04 48° NE 10:08:04 48° NE 10:10:48 10° NE
Cosmos 1825 3.7 10:07:17 28° ESE 10:07:48 29° E 10:11:07 10° NNE
Cosmos 2154 Rocket 4.0 10:06:42 53° SW 10:08:00 66° W 10:14:12 10° N
Cosmos 2221 2.5 10:03:55 10° N 10:08:05 77° NW 10:08:05 77° NW
STARLINK-78 4.0 10:09:36 51° NE 10:09:36 51° NE 10:12:22 10° NE
NPP 4.1 10:03:44 10° N 10:08:51 46° WNW 10:09:24 44° W
USA 215 3.6 10:10:02 42° WSW 10:10:02 42° WSW 10:15:40 10° WNW
STARLINK-1049 3.9 10:10:42 58° ESE 10:10:42 58° ESE 10:14:27 10° NE
SL-16 R/B 2.6 10:09:40 50° SW 10:10:26 53° W 10:16:27 10° NNW
STARLINK-57 3.9 10:11:15 53° NE 10:11:15 53° NE 10:14:07 10° NE
STARLINK-49 3.9 10:12:44 55° NE 10:12:44 55° NE 10:15:37 10° NE
Cosmos 1842 Rocket 3.9 10:07:58 10° NNW 10:11:49 53° WNW 10:11:49 53° WNW
IRS-1D 3.4 10:07:09 10° N 10:12:23 76° WNW 10:13:13 61° SW
STARLINK-27 3.8 10:14:17 57° NE 10:14:17 57° NE 10:17:14 10° NE
Cosmos 2322 Rocket 2.4 10:13:24 49° WSW 10:14:22 55° WNW 10:19:53 10° NNE
STARLINK-74 3.7 10:15:51 59° NNE 10:15:51 59° NNE 10:18:52 10° NE
STARLINK-1051 3.7 10:15:27 68° ESE 10:15:27 68° ESE 10:19:25 10° NE
In-Cosmos 22 Rocket 4.1 10:15:01 55° SW 10:16:09 70° W 10:21:40 10° N
STARLINK-39 3.7 10:17:16 60° NNE 10:17:16 60° NNE 10:20:18 10° NE
IRS-1C 4.2 10:12:32 10° NNE 10:17:52 75° ESE 10:19:34 44° S
STARLINK-31 3.7 10:18:46 60° NNE 10:18:46 60° NNE 10:21:50 10° NE
STARLINK-69 3.7 10:20:26 56° N 10:20:26 56° N 10:23:34 10° NE
IRS-P3 Rocket 4.5 10:14:44 10° N 10:20:02 80° WNW 10:21:19 52° SSW
ARIANE 5 R/B 2.9 10:15:13 10° NNE 10:20:07 55° E 10:22:00 35° SSE
STARLINK-21 3.6 10:21:53 60° N 10:21:53 60° N 10:25:03 10° NE
STARLINK-45 3.7 10:23:38 54° NNW 10:23:38 54° NNW 10:26:53 10° NE
STARLINK-70 3.7 10:24:50 54° NNW 10:24:50 54° NNW 10:28:05 10° NE
Cosmos 2058 3.3 10:24:58 48° WNW 10:24:58 48° WNW 10:28:53 10° N
STARLINK-1028 3.4 10:25:02 80° SSW 10:25:15 87° SE 10:29:24 10° NE
Cosmos 1315 Rocket 3.4 10:21:42 10° NNW 10:24:44 42° WNW 10:24:44 42° WNW
STARLINK-76 3.6 10:26:45 57° NNW 10:26:45 57° NNW 10:30:08 10° NE
STARLINK-23 3.6 10:28:06 55° NNW 10:28:06 55° NNW 10:31:29 10° NE
STARLINK-1010 3.5 10:28:24 69° WSW 10:28:51 82° NW 10:33:06 10° NE
STARLINK-32 3.6 10:29:33 53° NW 10:29:33 53° NW 10:32:57 10° NE
STARLINK-1021 3.4 10:29:51 71° WSW 10:30:15 84° NW 10:34:25 10° NE
STARLINK-40 3.7 10:31:18 51° NW 10:31:19 51° NW 10:34:48 10° NE
STARLINK-44 3.7 10:32:40 48° NW 10:32:43 48° NW 10:36:11 10° NE
Resurs 1-4 Rocket 3.6 10:30:17 10° NNW 10:34:15 22° WNW 10:35:11 21° W
STARLINK-37 3.9 10:34:38 42° NW 10:34:49 42° NW 10:38:15 10° NNE
STARLINK-1019 3.5 10:34:35 61° WSW 10:35:11 76° NW 10:39:20 10° NE
STARLINK-36 3.8 10:35:38 44° NW 10:35:48 45° NW 10:39:13 10° NNE
Cosmos 2237 4.3 10:36:22 40° SW 10:38:23 67° WNW 10:44:06 10° NNE
Cosmos 2366 rocket 4.2 10:35:13 21° S 10:39:29 68° E 10:45:44 10° NNE
STARLINK-63 4.1 10:39:12 37° WNW 10:39:34 39° NW 10:42:57 10° NNE
Nadezhda 3 Rocket 4.3 10:33:56 10° NNW 10:40:00 50° W 10:42:28 33° SW
STARLINK-1012 3.7 10:39:23 52° W 10:40:11 68° NW 10:44:18 10° NE
STARLINK-35 4.0 10:40:40 38° WNW 10:41:05 40° NW 10:44:28 10° NNE
STARLINK-51 4.1 10:42:15 36° WNW 10:42:43 38° NW 10:46:05 10° NNE
GEOS 3 Rocket 3.5 10:37:59 10° SSE 10:43:07 81° WSW 10:48:23 10° NW
STARLINK-30 4.1 10:43:48 34° WNW 10:44:21 37° NW 10:47:41 10° NNE
STARLINK-72 4.2 10:45:21 33° WNW 10:45:58 35° NW 10:49:17 10° NNE
Cosmos 1125 Rocket 4.1 10:41:50 10° NW 10:46:30 34° W 10:46:59 34° WSW
COBE Rocket 4.1 10:42:21 15° SSE 10:46:31 77° ENE 10:51:39 10° N
ERS-1 4.5 10:41:41 10° N 10:46:54 76° WNW 10:49:17 33° SSW
STARLINK-59 4.4 10:48:30 28° WNW 10:49:17 31° NW 10:52:30 10° NNE
SL-16 R/B 3.7 10:47:50 19° W 10:49:48 23° WNW 10:54:14 10° N
STARLINK-1026 4.0 10:48:56 39° W 10:50:08 54° NW 10:54:13 10° NE
Spot 4 Rocket 4.0 10:45:15 10° NNE 10:50:24 80° ESE 10:53:28 25° S
STARLINK-56 4.4 10:49:57 28° WNW 10:50:45 32° NW 10:53:59 10° NNE
STARLINK-73 4.5 10:51:33 27° WNW 10:52:26 31° NW 10:55:39 10° NNE
COSMOS 2428 3.6 10:48:27 16° S 10:52:40 44° ESE 10:58:01 10° NE
STARLINK-50 4.5 10:52:12 28° WNW 10:53:16 34° NW 10:56:43 10° NNE
Meteor 1-28 Rocket 3.3 10:51:00 20° SSE 10:53:28 73° ENE 10:57:12 10° N
Cosmos 1844 Rocket 3.8 10:49:12 10° N 10:54:34 46° ENE 10:59:52 10° SE
STARLINK-1013 4.1 10:53:44 33° W 10:55:09 49° NW 10:59:10 10° NE
STARLINK-60 3.4 10:52:02 10° NW 10:55:11 60° NE 10:58:21 10° SE
Cosmos 1538 Rocket 4.0 10:56:05 27° SSW 10:59:02 85° WNW 11:04:28 10° NNE
SL-4 R/B 2.5 10:55:18 10° NW 11:00:03 72° NE 11:04:31 10° SE
STARLINK-1009 4.3 10:58:30 29° W 11:00:07 44° NW 11:04:06 10° NNE
CZ-2D R/B 3.5 10:57:07 10° N 11:01:25 77° WNW 11:03:42 28° SSW
STARLINK-1444 3.6 10:59:15 10° NNW 11:01:28 40° NE 11:03:48 10° ESE
STARLINK-1452 3.5 10:59:52 10° NNW 11:02:05 41° NE 11:04:26 10° ESE
CZ-2D R/B 4.2 11:01:20 10° NW 11:02:53 11° WNW 11:04:26 10° W
STARLINK-1450 3.4 11:00:42 10° NNW 11:02:53 41° NE 11:05:10 10° ESE
STARLINK-1392 3.4 11:00:54 10° NNW 11:03:05 42° NE 11:05:23 10° ESE
STARLINK-1415 3.4 11:00:55 10° NNW 11:03:05 42° NE 11:05:23 10° ESE
STARLINK-1399 3.4 11:00:55 10° NNW 11:03:06 42° NE 11:05:24 10° ESE
USA 229 DEB 4.0 10:55:55 10° NW 11:03:06 53° WSW 11:10:30 10° S
STARLINK-1394 3.4 11:00:56 10° NNW 11:03:07 42° NE 11:05:25 10° ESE
STARLINK-1395 3.4 11:00:57 10° NNW 11:03:07 42° NE 11:05:26 10° ESE
STARLINK-1393 3.4 11:00:57 10° NNW 11:03:08 42° NE 11:05:26 10° ESE
STARLINK-1401 3.4 11:00:57 10° NNW 11:03:08 42° NE 11:05:26 10° ESE
STARLINK-1396 3.4 11:00:57 10° NNW 11:03:08 42° NE 11:05:26 10° ESE
STARLINK-1397 3.4 11:00:58 10° NNW 11:03:08 42° NE 11:05:26 10° ESE
STARLINK-1453 3.4 11:00:58 10° NNW 11:03:08 42° NE 11:05:26 10° ESE
STARLINK-1404 3.4 11:00:59 10° NNW 11:03:10 42° NE 11:05:28 10° ESE
STARLINK-1417 3.4 11:01:00 10° NNW 11:03:11 42° NE 11:05:29 10° ESE
STARLINK-1402 3.4 11:01:00 10° NNW 11:03:11 42° NE 11:05:29 10° ESE
STARLINK-1413 3.4 11:01:01 10° NNW 11:03:12 42° NE 11:05:30 10° ESE
USA 229 4.0 10:56:01 10° NW 11:03:12 53° WSW 11:10:37 10° S
STARLINK-1406 3.4 11:01:02 10° NNW 11:03:13 42° NE 11:05:31 10° ESE
STARLINK-1440 3.4 11:01:04 10° NNW 11:03:14 42° NE 11:05:33 10° ESE
STARLINK-1445 3.4 11:01:05 10° NNW 11:03:15 42° NE 11:05:34 10° ESE
STARLINK-1443 3.4 11:01:05 10° NNW 11:03:16 42° NE 11:05:34 10° ESE
STARLINK-1454 3.4 11:01:06 10° NNW 11:03:16 42° NE 11:05:35 10° ESE
STARLINK-1457 3.4 11:01:07 10° NNW 11:03:17 42° NE 11:05:36 10° ESE
STARLINK-1456 3.4 11:01:07 10° NNW 11:03:18 42° NE 11:05:36 10° ESE
STARLINK-1451 3.4 11:01:08 10° NNW 11:03:18 42° NE 11:05:37 10° ESE
STARLINK-1414 3.4 11:01:05 10° NNW 11:03:18 42° NE 11:05:39 10° ESE
STARLINK-1442 3.4 11:01:09 10° NNW 11:03:20 42° NE 11:05:38 10° ESE
STARLINK-1416 3.4 11:01:07 10° NNW 11:03:20 42° NE 11:05:41 10° ESE
STARLINK-1408 3.4 11:01:08 10° NNW 11:03:21 42° NE 11:05:41 10° ESE
STARLINK-1405 3.4 11:01:12 10° NNW 11:03:22 42° NE 11:05:41 10° ESE
STARLINK-1421 3.4 11:01:12 10° NNW 11:03:23 42° NE 11:05:41 10° ESE
STARLINK-1410 3.4 11:01:12 10° NNW 11:03:23 42° NE 11:05:42 10° ESE
STARLINK-1400 3.4 11:01:13 10° NNW 11:03:23 42° NE 11:05:42 10° ESE
STARLINK-1407 3.4 11:01:13 10° NNW 11:03:24 42° NE 11:05:43 10° ESE
STARLINK-1439 3.4 11:01:14 10° NNW 11:03:24 42° NE 11:05:43 10° ESE
STARLINK-1436 (VISORSAT) 3.4 11:01:12 10° NNW 11:03:25 43° NE 11:05:46 10° ESE
STARLINK-1419 3.4 11:01:12 10° NNW 11:03:25 43° NE 11:05:46 10° ESE
STARLINK-1409 3.4 11:01:14 10° NNW 11:03:25 42° NE 11:05:44 10° ESE
STARLINK-1351 3.4 11:01:15 10° NNW 11:03:26 42° NE 11:05:45 10° ESE
STARLINK-1370 3.4 11:01:15 10° NNW 11:03:26 42° NE 11:05:45 10° ESE
STARLINK-1418 3.4 11:01:16 10° NNW 11:03:27 42° NE 11:05:45 10° ESE
STARLINK-1434 3.4 11:01:16 10° NNW 11:03:27 42° NE 11:05:45 10° ESE
STARLINK-1398 3.4 11:01:13 10° NNW 11:03:27 43° NE 11:05:48 10° ESE
STARLINK-1403 3.4 11:01:17 10° NNW 11:03:28 42° NE 11:05:46 10° ESE
STARLINK-1433 3.4 11:01:19 10° NNW 11:03:29 42° NE 11:05:48 10° ESE
STARLINK-1422 3.4 11:01:17 10° NNW 11:03:30 43° NE 11:05:51 10° ESE
STARLINK-1420 3.4 11:01:17 10° NNW 11:03:31 43° NE 11:05:52 10° ESE
STARLINK-1411 3.4 11:01:20 10° NNW 11:03:31 42° NE 11:05:49 10° ESE
STARLINK-1438 3.4 11:01:20 10° NNW 11:03:31 42° NE 11:05:50 10° ESE
STARLINK-1460 3.4 11:01:19 10° NNW 11:03:33 43° NE 11:05:54 10° ESE
STARLINK-1458 3.4 11:01:23 10° NNW 11:03:37 43° NE 11:05:58 10° ESE
STARLINK-1423 3.4 11:01:26 10° NNW 11:03:39 43° NE 11:06:00 10° ESE
STARLINK-1446 3.4 11:01:27 10° NNW 11:03:41 43° NE 11:06:02 10° ESE
STARLINK-1437 3.4 11:01:29 10° NNW 11:03:42 43° NE 11:06:03 10° ESE
STARLINK-1447 3.4 11:01:31 10° NNW 11:03:44 43° NE 11:06:06 10° ESE
STARLINK-1455 3.4 11:01:32 10° NNW 11:03:45 43° NE 11:06:07 10° ESE
STARLINK-1441 3.4 11:01:32 10° NNW 11:03:47 43° NE 11:06:08 10° ESE
STARLINK-1448 3.4 11:01:36 10° NNW 11:03:50 43° NE 11:06:12 10° ESE
STARLINK-1449 3.4 11:01:38 10° NNW 11:03:52 43° NE 11:06:13 10° ESE
STARLINK-1412 3.4 11:01:46 10° NNW 11:04:00 44° NE 11:06:22 10° ESE
NOSS 3-1 (C) 4.4 10:56:51 10° NW 11:04:33 50° WSW 11:13:00 10° S
STARLINK-1015 4.5 11:03:17 25° W 11:05:07 40° NW 11:09:02 10° NNE
ERS-2 2.0 11:03:41 15° SSE 11:06:36 89° ESE 11:10:17 10° NNW
SL-08 R/B 3.4 11:04:16 23° SSW 11:06:59 52° W 11:11:29 10° NNW
Cosmos 864 Rocket 4.4 11:03:29 20° SSW 11:07:54 72° W 11:14:03 10° N
Cosmos 1606 3.4 11:04:19 10° N 11:08:01 52° E 11:11:43 10° SSE
H-2A R/B 2.3 11:04:47 10° SSE 11:09:09 75° ENE 11:13:38 10° N
Cosmos 1766 Rocket 3.5 11:07:18 26° SSW 11:09:37 66° W 11:13:56 10° N
Okean 3 Rocket 3.8 11:08:08 27° SSW 11:10:23 54° W 11:14:51 10° N
Cosmos 1727 Rocket 4.4 11:04:24 10° N 11:10:32 63° E 11:16:37 10° SSE
Cosmos 1151 Rocket 3.6 11:07:49 10° N 11:12:09 58° E 11:16:27 10° SSE
STARLINK-1031 4.5 11:10:11 22° S 11:12:26 41° SE 11:16:20 10° ENE
NOSS 3-1 (A) 4.2 11:04:30 10° NW 11:12:27 67° WSW 11:21:16 10° SSE
Cosmos 2360 Rocket 3.1 11:09:47 22° WSW 11:12:35 34° WNW 11:17:41 10° N
Cosmos 2151 3.7 11:11:12 27° WSW 11:12:46 37° W 11:16:46 10° NNW
CZ-2C R/B 2.7 11:09:34 10° NNE 11:13:23 89° WNW 11:15:56 20° SSW
STARLINK-1024 4.3 11:14:58 21° SSW 11:17:23 46° SE 11:21:21 10° ENE
CZ-3 R/B 4.1 10:46:20 16° WSW 11:22:08 62° S 11:32:20 10° E
STARLINK-1035 4.1 11:19:45 20° SSW 11:22:21 52° SE 11:26:23 10° NE
Cosmos 2333 Rocket 2.2 11:19:23 17° SSW 11:23:44 80° WNW 11:29:26 10° NNE
Lacrosse 5 rocket 1.3 11:21:10 21° SSW 11:23:47 72° SE 11:27:41 10° NE
STARLINK-1032 3.9 11:24:31 19° SSW 11:27:17 59° SE 11:31:22 10° NE
STARLINK-29 3.7 11:24:26 10° NW 11:27:34 55° NE 11:30:41 10° ESE
Cosmos 2322 4.1 11:25:56 18° SW 11:29:55 47° WNW 11:35:26 10° N
Cosmos 2219 Rocket 2.2 11:25:54 16° SSW 11:30:28 75° WNW 11:36:04 10° NNE
STARLINK-1037 3.8 11:27:46 19° SSW 11:30:38 65° SE 11:34:44 10° NE
STARLINK-1011 3.8 11:29:18 18° SSW 11:32:15 66° SE 11:36:22 10° NE
Cosmos 1633 3.2 11:29:09 10° S 11:32:38 53° E 11:36:10 10° NNE
STARLINK-1036 3.7 11:34:06 17° SW 11:37:14 75° SE 11:41:22 10° NE
CZ-2C R/B 3.1 11:36:43 10° NNE 11:41:51 58° E 11:46:53 10° S
STARLINK-1044 3.6 11:38:53 15° SW 11:42:12 84° SE 11:46:21 10° NE
CZ-4B R/B 3.0 11:39:29 10° SE 11:42:17 34° ENE 11:45:09 10° N
Cosmos 1743 Rocket 3.7 11:37:56 10° S 11:42:20 80° E 11:46:43 10° N
ATLAS 5 CENTAUR R/B 1.6 11:39:09 11° SSW 11:42:55 67° ESE 11:47:11 10° NE
Cosmos 1825 4.2 11:42:06 11° W 11:43:22 13° WNW 11:45:05 10° NW
ADEOS II 4.1 11:41:53 10° NW 11:44:05 13° WNW 11:46:19 10° W
USA 32 4.2 11:39:25 10° S 11:44:38 80° E 11:49:53 10° N
Cosmos 1346 Rocket 3.3 11:42:42 10° S 11:46:38 60° E 11:50:34 10° NNE
STARLINK-1047 3.6 11:43:38 14° SW 11:47:09 88° NW 11:51:18 10° NE
IDEFIX/ARIANE 42P 3.3 11:44:31 10° N 11:49:19 37° WNW 11:54:06 10° SW
